Regional Weather Roundup
Issued by NWS

Home | Current Version | Previous Version | Graphics & Text | Print | Product List | Glossary On
Versions: 1 2 3 4 5 6 7 8 9 10 11 12 13 14 15 16 17 18 19 20 21 22 23 24 25 26 27 28 29 30 31 32 33 34 35 36 37 38 39 40 41 42 43 44 45 46 47 48 49 50
000
ASUS43 KMKX 050521
RWRWI

WISCONSIN REGIONAL WEATHER ROUNDUP
NATIONAL WEATHER SERVICE MILWAUKEE/SULLIVAN WI
1200 AM CDT TUE MAY 05 2015

NOTE: "FAIR" INDICATES FEW OR NO CLOUDS BELOW 12,000 FEET WITH NO
SIGNIFICANT WEATHER AND/OR OBSTRUCTIONS TO VISIBILITY.

WIZ001-002-006>008-014>016-023>028-050600-
NORTHWEST WISCONSIN

CITY           SKY/WX    TMP DP  RH WIND       PRES   REMARKS
SUPERIOR ARPT  CLEAR     40  32  71 CALM      30.24R
ASHLAND        CLEAR     40  37  89 CALM      30.25R
HAYWARD        CLEAR     41  33  73 CALM      30.24R
SIREN          CLEAR     38  32  78 CALM      30.22F
CUMBERLAND     CLEAR     46  28  49 NE7       30.22S
RICE LAKE      CLEAR     50  31  48 N6        30.22F
CHETEK         CLEAR     55  29  37 NE5       30.21F
LADYSMITH      CLEAR     52  23  32 NE6       30.25R
EAU CLAIRE     PTCLDY    48  40  73 NE5       30.19R
MENOMONIE      PTCLDY    52  40  63 CALM      30.20R
NEW RICHMOND   CLEAR     46  36  68 NE3       30.19F
OSCEOLA        CLEAR     46  38  74 CALM      30.22F
$$

WIZ003>005-009-010-017-018-050600-
NORTH CENTRAL WISCONSIN

CITY           SKY/WX    TMP DP  RH WIND       PRES   REMARKS
MANITOWISH WTR CLEAR     36  33  88 CALM      30.25S
ARBOR VITAE    CLEAR     43  29  56 E3        30.26R
WOODRUFF       CLEAR     43  29  56 E3        30.26R
RHINELANDER    CLEAR     47  32  56 E3        30.27R
EAGLE RIVER    CLEAR     42  30  61 CALM      30.27R
LAND O LAKES   CLEAR     37  31  79 CALM      30.27S
PHILLIPS       CLEAR     42  23  47 CALM      30.24R
TOMAHAWK       CLEAR     40  31  70 CALM      30.26S
MEDFORD        CLEAR     49  29  45 E6        30.24R
MERRILL        CLEAR     48  40  74 E5        30.25R
$$

WIZ029-030-035-036-043>047-050600-
CENTRAL WISCONSIN

CITY           SKY/WX    TMP DP  RH WIND       PRES   REMARKS
WAUSAU         PTCLDY    52  38  58 E9        30.23R
MOSINEE        PTCLDY    50  41  71 E7        30.25R
MARSHFIELD     PTCLDY    54  40  59 E8        30.22R
STEVENS POINT  PTCLDY    51  38  61 E7        30.25R
WAUPACA        MOCLDY    55  39  53 CALM      30.24S
WAUTOMA        MOCLDY    54  41  61 NE7       30.23R
WISC RAPIDS    PTCLDY    54  40  59 E8        30.23R
CAMP DOUGLAS   PTCLDY    51  48  90 E7        30.18R
$$

WIZ011>013-019>022-031-037>040-048>050-050600-
NORTHEAST WISCONSIN

CITY           SKY/WX    TMP DP  RH WIND       PRES   REMARKS
ANTIGO         CLEAR     49  37  65 E5        30.26R
SHAWANO        PTCLDY    53  39  58 E8        30.27R
OCONTO         MOCLDY    48  37  64 NE3       30.26S
STURGEON BAY   PTCLDY    48  30  49 E8        30.30R
GREEN BAY      MOCLDY    51  36  56 E6        30.25R
MANITOWOC      MOCLDY    51  31  46 N5        30.24S
APPLETON       CLOUDY    52  34  50 NE7       30.24R
CLINTONVILLE   MOCLDY    50  37  62 NE5       30.25R
OSHKOSH        CLOUDY    55  37  50 E8        30.22S
$$

WIZ032>034-041-042-053>061-050600-
SOUTHWEST WISCONSIN

CITY           SKY/WX    TMP DP  RH WIND       PRES   REMARKS
LA CROSSE      MOCLDY    58  45  62 E3        30.16S
SPARTA         PTCLDY    47  41  80 CALM      30.19R
VIROQUA        MOCLDY    55  42  61 E7        30.17S
BOSCOBEL       CLOUDY    66  52  60 E5G18     30.15S
PRAIRIE DU CHI CLOUDY    64  53  68 CALM      30.14R
PLATTEVILLE    CLOUDY    59  53  80 E13       30.16F
$$

WIZ056-057-062-063-064-067-068-050600-
SOUTH CENTRAL WISCONSIN

CITY           SKY/WX    TMP DP  RH WIND       PRES   REMARKS
REEDSBURG      CLOUDY    59  38  44 NE5       30.18S
BARABOO/DELLS  CLOUDY    57  33  40 E8        30.20R
LONE ROCK      CLOUDY    61  47  59 E7        30.17R
MINERAL POINT  LGT RAIN  61  39  44 SE9       30.18S
MADISON        CLOUDY    58  36  43 SE9       30.19R
MIDDLETON      CLOUDY    60  36  40 E5        30.19S
WATERTOWN      MOCLDY    55  39  54 E6        30.20R
MONROE         DRIZZLE   55  43  62 SE7       30.19R
JANESVILLE     CLOUDY    55  37  50 E6        30.18S
$$

WIZ051-052-058>065-066-070>072-050600-
SOUTHEAST WISCONSIN

CITY           SKY/WX    TMP DP  RH WIND       PRES   REMARKS
MILWAUKEE      MOCLDY    51  34  52 N6        30.21S
WAUKESHA       MOCLDY    50  34  53 NE3       30.22R
MILWAUKEE/TIMM MOCLDY    52  32  46 CALM      30.22R
RACINE         PTCLDY    50  35  56 N8        30.21F
BURLINGTON     MOCLDY    49  36  60 CALM      30.20R
KENOSHA        PTCLDY    49  38  65 CALM      30.20S
FOND DU LAC    CLOUDY    54  34  46 E5        30.22R
SHEBOYGAN      PTCLDY    46  35  65 NE8       30.22S
WEST BEND      PTCLDY    48  34  57 CALM      30.22R
JUNEAU         CLOUDY    53  38  56 E7        30.22R
$$

LSZ147-162-050600-
LAKE SUPERIOR

STATION/POSITION TIME  TEMP    WIND        PRES    WAVE
                       AIR SEA DIR/SP/G            HT/PER
                 (UTC) (F)     (DEG/KT/KT) (MB)    (FT/S)
W MID LAKE BUOY  0450   41 35  110/  2/  2 1025.0R   0
DEVILS ISLAND    0500   47      60/  6/  7 1024.9R
PORT WING        0400   48     160/  5/  6 1023.4R
SAXON HARBOR     0400   45        CALM     1023.0
$$

LMZ867-665-643>646-050600-
LAKE MICHIGAN

STATION/POSITION TIME  TEMP    WIND        PRES    WAVE
                       AIR SEA DIR/SP/G            HT/PER
                 (UTC) (F)     (DEG/KT/KT) (MB)    (FT/S)
CHAMBERS ISLAND  0400   49      80/  6/ 11 1025.1R
NORTHPORT PIER   0400   46     160/  3/  6 1025.1R
SISTER BAY       0402   45        CALM       N/A
KEWAUNEE LAKESHO 0412   47      50/  7/ 10 1023.3S
SHEBOYGAN LAKESH 0500   47      10/  9/ 10 1023.7S
PORT WASHINGTON  0400   53     340/  3/  4 1023.7R
ATWATER BUOY     0500   48     360/  6/  8 1024.1F
MILWAUKEE LAKESH 0500   53      20/  6/  7   N/A
KENOSHA   LAKESH 0500   50     360/  7/  8 1022.7R
$$

TC  - TEMPERATURE IN CELSIUS
VSB - VISIBILITY IN STATUTE MILES
WCI - WIND CHILL INDEX
HX  - HEAT INDEX




USA.gov is the U.S. government's official web portal to all federal, state and local government web resources and services.